This is the latest recevied weather packets stored in our database for station/object WD8INF-9. If no packets are shown the sender has not sent any weather packets the latest 10 day(s).
| Time | Temp. | Humidity | Pressure | Rain* | Wind** | Luminosity | Snow |
|---|---|---|---|---|---|---|---|
| 1778077542 | 15° C | - | 1010.7 hPa | 0 mm | - | - | - |
| 1778077241 | 12.22° C | - | 1010.7 hPa | 0 mm | - | - | - |
| 1778076941 | 12.22° C | - | 1010.4 hPa | 0 mm | - | - | - |
| 1778076641 | 11.67° C | - | 1010.6 hPa | 0 mm | - | - | - |
| 1778076341 | 11.67° C | - | 1010.3 hPa | 0 mm | - | - | - |
| 1778076040 | 11.67° C | - | 1010.6 hPa | 0 mm | - | - | - |
| 1778075740 | 11.11° C | - | 1010.4 hPa | 0 mm | - | - | - |
| 1778075440 | 10.56° C | - | 1010.9 hPa | 0 mm | - | - | - |
| 1778075140 | 10° C | - | 1010.5 hPa | 0 mm | - | - | - |
| 1778074840 | 10° C | - | 1010.8 hPa | 0 mm | - | - | - |
| 1778074539 | 10.56° C | - | 1010.2 hPa | 0 mm | - | - | - |
| 1778074239 | 10° C | - | 1010.2 hPa | 0 mm | - | - | - |
| 1778073939 | 9.44° C | - | 1010.4 hPa | 0 mm | - | - | - |
| 1778073639 | 9.44° C | - | 1010.2 hPa | 0 mm | - | - | - |
| 1778073338 | 9.44° C | - | 1010.4 hPa | 0 mm | - | - | - |
| 1778073038 | 8.89° C | - | 1010.3 hPa | 0 mm | - | - | - |
| 1778072738 | 9.44° C | - | 1010.2 hPa | 0 mm | - | - | - |
| 1778072438 | 9.44° C | - | 1010.1 hPa | 0 mm | - | - | - |
| 1778072137 | 10° C | - | 1010.1 hPa | 0 mm | - | - | - |
| 1778071837 | 9.44° C | - | 1009.9 hPa | 0 mm | - | - | - |
| 1778071537 | 9.44° C | - | 1009.8 hPa | 0 mm | - | - | - |
| 1778071237 | 9.44° C | - | 1009.8 hPa | 0 mm | - | - | - |
| 1778070937 | 8.89° C | - | 1009.9 hPa | 0 mm | - | - | - |
| 1778070636 | 8.89° C | - | 1009.9 hPa | 0 mm | - | - | - |
| 1778070336 | 8.89° C | - | 1009.7 hPa | 0 mm | - | - | - |
* Rain since midnight (hover to see other rain measurements)
** Current wind speed in m/s (hover to see current wind gust speed)